Location: Ash Swamp
(41.5170°N, 74.6157°W)
Time: 02:25:41
(UTC+00:00)

Cosmos 2221 - Pass Details

Date: 14 July 2020
Orbit: 592 x 617 km, 82.5° (Epoch: 14 August)

Event Time Altitude Azimuth Distance (km) Brightness Sun altitude
Rises 01:49:25 0° 356° (N) 2,882 6.8 -12.4°
Reaches altitude 10° 01:51:43 10° 2° (N) 1,969 5.8 -12.7°
Maximum altitude 01:55:58 53° 79° (E) 749 2.8 -13.3°
Enters shadow 01:58:39 21° 149° (SSE) 1,363 3.7 -13.6°
